Regional Weather Roundup
Issued by NWS Jackson, KY

Home | Current Version | Previous Version | Graphics & Text | Print | Product List | Glossary On
Versions: 1 2 3 4 5 6 7 8 9 10 11 12 13 14 15 16 17 18 19 20 21 22 23 24 25 26 27 28 29 30 31 32 33 34 35 36 37 38 39 40 41 42 43 44 45 46 47 48 49 50
000
ASUS43 KJKL 280810
RWRJKL

EAST KENTUCKY HOURLY WEATHER ROUNDUP
NATIONAL WEATHER SERVICE JACKSON KY
400 AM EDT TUE JUL 28 2015

NOTE: "FAIR" INDICATES FEW OR NO CLOUDS BELOW 12,000 FEET WITH
NO SIGNIFICANT WEATHER AND/OR OBSTRUCTIONS TO VISIBILITY.

* THESE REPORTS ARE NOT UNDER NWS QUALITY CONTROL AND MAY NOT
  REPORT WEATHER SUCH AS PRECIPITATION AND FOG.

KYZ079-080-083-085-087-088-110-112-115-119-120-280900
...EASTERN KENTUCKY...

CITY           SKY/WX    TMP DP  RH WIND       PRES   REMARKS
JACKSON        MOCLDY    73  71  93 CALM      30.01F FOG
LONDON         FOG       72  68  87 CALM      30.01S VSB 1/2
SOMERSET*      MOCLDY    70  70 100 CALM      30.01S FOG
MONTICELLO*    PTCLDY    73  73 100 CALM      30.02F FOG
WILLIAMSBURG*  PTCLDY    70  70 100 CALM      30.01S
MIDDLESBORO*   CLOUDY    71  71 100 CALM      30.02S FOG
HAZARD APT*    FOG       72  72 100 CALM      30.00F VSB 1/4
BLACK MTN*       N/A     68  66  94 N2          N/A
PIKEVILLE APT* FOG       72  72 100 S3        30.02S VSB 0
BIG SANDY*     SUNNY     71  71  98 CALM      30.00F
MOREHEAD APT*  MOSUNNY   70  68  94 CALM      30.01S FOG
$$

KYZ035-036-041-042-044-050-067-078-099-280900
...CENTRAL KENTUCKY...

CITY           SKY/WX    TMP DP  RH WIND       PRES   REMARKS
MT STERLING*   MOCLDY    70  70 100 CALM      30.00S
FLEMING/MASON* CLEAR     70  70 100 CALM      30.00S FOG
DANVILLE*      MOCLDY    70  70 100 CALM      30.00F FOG
RICHMOND*      MOCLDY    73  70  88 CALM      29.98F
LEXINGTON      MOCLDY    73  70  90 N3        29.98F
FRANKFORT      PTCLDY    72  69  90 CALM      29.96F
$$

KYZ091>093-OHZ055-061-077-WVZ005-015-034-035-042-280900
...SOUTHERN OHIO/WEST VIRGINIA...

CITY           SKY/WX    TMP DP  RH WIND       PRES   REMARKS
COVINGTON      MOCLDY    74  72  93 CALM      29.97F FOG
COLUMBUS       MOCLDY    71  65  81 E3        29.97F
DAYTON         CLEAR     71  66  84 E3        30.00S
WILMINGTON     CLEAR     71  69  93 E3        29.98F FOG
HUNTINGTON     PTCLDY    71  71 100 CALM      29.98F FOG
CHARLESTON     FOG       70  69  97 CALM      29.99F VSB 1
PINEVILLE*     CLOUDY    71  71 100 MISG      30.10R FOG
BECKLEY        TSTM      68  66  93 E7        30.09F FOG
BLUEFIELD      CLOUDY    70  66  87 CALM      30.11F
$$

VAZ002-007-008-TNZ017-027-036-066-071-280900
...SOUTHWEST VIRGINIA/EAST TENNESSEE...

CITY           SKY/WX    TMP DP  RH WIND       PRES   REMARKS
WISE*          CLOUDY    73  73 100 CALM      30.10F
ABINGDON*      CLOUDY    72  69  90 CALM      30.06F
BRISTOL        MOCLDY    72  71  97 CALM      30.04S FOG
KNOXVILLE      MOCLDY    76  72  87 E3        29.98F
OAK RIDGE      MOCLDY    75  71  87 CALM      30.01S
CROSSVILLE     MOCLDY    72  70  93 CALM      30.05S FOG
NASHVILLE      MOCLDY    79  77  94 SE3       29.96F
$$

...KEY TO REMARKS...
VSB - VISIBILITY IN MILES
WCI - WIND CHILL INDEX
HX  - HEAT INDEX

$$


USA.gov is the U.S. government's official web portal to all federal, state and local government web resources and services.